This is the latest recevied weather packets stored in our database for station/object WA0LM. If no packets are shown the sender has not sent any weather packets the latest 10 day(s).
| Time | Temp. | Humidity | Pressure | Rain* | Wind** | Luminosity | Snow |
|---|---|---|---|---|---|---|---|
| 1777406380 | 9.44° C | 52% | 1014.5 hPa | 0 mm | - | 348 W/m² | - |
| 1777406078 | 8.89° C | 50% | 1014.5 hPa | 0 mm | - | 392 W/m² | - |
| 1777405775 | 8.89° C | 49% | 1014.4 hPa | 0 mm | - | 540 W/m² | - |
| 1777405471 | 9.44° C | 49% | 1014.5 hPa | 0 mm | - | 565 W/m² | - |
| 1777405169 | 9.44° C | 52% | 1014.5 hPa | 0 mm | - | 700 W/m² | - |
| 1777404866 | 9.44° C | 49% | 1014.3 hPa | 0 mm | - | 728 W/m² | - |
| 1777404565 | 9.44° C | 49% | 1014.2 hPa | 0 mm | - | 556 W/m² | - |
| 1777404261 | 9.44° C | 54% | 1014.2 hPa | 0 mm | - | 450 W/m² | - |
| 1777403956 | 8.89° C | 47% | 1014.2 hPa | 0 mm | - | 498 W/m² | - |
| 1777403656 | 8.89° C | 51% | 1013.9 hPa | 0 mm | - | 535 W/m² | - |
| 1777403350 | 8.89° C | 49% | 1014.1 hPa | 0 mm | - | 511 W/m² | - |
| 1777403050 | 8.89° C | 50% | 1014 hPa | 0 mm | - | 447 W/m² | - |
| 1777402746 | 8.89° C | 48% | 1014.2 hPa | 0 mm | - | 466 W/m² | - |
| 1777402441 | 8.89° C | 52% | 1014.1 hPa | 0 mm | - | 506 W/m² | - |
| 1777402139 | 8.89° C | 49% | 1014.2 hPa | 0 mm | - | 435 W/m² | - |
| 1777401835 | 8.89° C | 50% | 1014.1 hPa | 0 mm | - | 352 W/m² | - |
| 1777401534 | 8.33° C | 51% | 1014.3 hPa | 0 mm | - | 532 W/m² | - |
| 1777401230 | 8.33° C | 53% | 1014.2 hPa | 0 mm | - | 511 W/m² | - |
| 1777400926 | 8.33° C | 52% | 1014.3 hPa | 0 mm | - | 406 W/m² | - |
| 1777400622 | 8.33° C | 49% | 1014.2 hPa | 0 mm | - | 676 W/m² | - |
| 1777400320 | 8.33° C | 50% | 1014.2 hPa | 0 mm | - | 295 W/m² | - |
| 1777400015 | 8.33° C | 53% | 1014.2 hPa | 0 mm | - | 470 W/m² | - |
| 1777399713 | 8.89° C | 52% | 1014.1 hPa | 0 mm | - | 683 W/m² | - |
| 1777399409 | 8.89° C | 53% | 1014.1 hPa | 0 mm | - | 514 W/m² | - |
| 1777399107 | 8.33° C | 50% | 1014.2 hPa | 0 mm | - | 555 W/m² | - |
* Rain latest hour (hover to see other rain measurements)
** Current wind speed in m/s (hover to see current wind gust speed)